Temp
7 7 8 9 9 10 11 12 13 14 15 16 16 18 18 18 18 18 18 18 19 19 18 18 17 17 17 16 15 16 17 17 16 16 16 16 16 16 16 16 16 16 16
4 5 6 7 8 8 9 10 12 13 14 13 15 16 18 18 18 18 18 17 18 18 18 18 17 18 17 16 15 16 16 17 16 15 15 15 16 16 15 16 16 16 16
3 4 5 5 6 7 7 9 10 11 12 13 14 15 17 18 18 18 18 17 17 18 18 18 17 17 17 17 15 15 16 16 16 15 15 15 15 16 15 15 16 16 16
2 3 4 4 5 6 6 7 7 9 10 12 13 14 15 16 18 18 18 17 18 17 17 17 17 16 16 17 16 15 15 16 16 16 15 15 15 16 15 15 16 16 16
1 1 2 2 3 4 5 5 6 6 7 10 11 12 13 15 16 17 18 17 17 18 17 17 17 17 17 17 16 15 15 14 16 16 15 15 15 15 15 15 15 15 15
0 1 1 1 2 3 4 4 4 5 5 6 8 11 13 14 14 16 18 17 17 17 17 17 16 16 16 17 16 15 15 14 15 15 15 15 15 15 15 15 15 15 15
0 1 0 1 1 1 2 2 2 3 5 6 7 11 14 16 16 15 16 17 17 17 17 17 17 17 16 16 16 16 15 14 15 15 15 15 14 15 15 15 14 15 15
-1 -0 -0 -0 -0 0 1 1 1 1 2 4 5 8 10 14 15 15 15 16 17 17 17 17 16 16 16 16 16 16 15 14 14 16 15 14 14 14 14 14 14 14 15
-1 -1 -1 -1 -1 -1 -0 -0 -0 -0 0 2 4 5 8 12 9 14 14 15 15 16 16 16 16 16 16 16 16 16 16 15 14 14 14 14 14 14 13 13 13 14 14
-2 -2 -2 -1 -2 -2 -1 -1 -1 -1 -0 -0 1 4 5 5 6 8 13 14 15 15 16 16 16 16 16 15 15 16 16 15 14 14 14 14 14 14 14 13 14 14 14
-2 -2 -2 -2 -2 -2 -1 -1 -2 -2 -2 -1 -0 1 3 4 5 6 7 12 13 14 14 15 16 16 16 15 16 15 16 15 15 14 14 14 14 14 14 14 14 14 14
-3 -3 -3 -3 -3 -3 -2 -2 -2 -2 -3 -2 -1 -1 1 3 6 6 7 8 9 14 14 14 15 16 16 16 16 15 16 15 15 14 14 14 14 14 14 14 14 14 14
-5 -5 -5 -5 -4 -4 -3 -3 -3 -3 -3 -3 -2 -1 -1 1 3 4 5 6 6 9 13 13 14 14 15 16 16 15 15 15 15 14 14 14 14 14 14 14 14 14 14
-5 -5 -6 -6 -5 -5 -4 -4 -4 -4 -3 -3 -3 -3 -2 -1 1 3 4 5 6 7 12 14 13 13 14 15 16 15 15 16 15 15 14 15 14 14 15 14 14 14 15
-6 -7 -6 -6 -6 -6 -6 -5 -5 -5 -5 -4 -4 -3 -3 -2 -1 1 3 4 5 6 10 14 14 13 13 14 15 15 15 15 15 15 14 15 14 14 14 14 14 14 14
-6 -7 -7 -7 -7 -7 -6 -6 -6 -5 -5 -4 -4 -4 -3 -3 -2 1 2 3 4 5 6 8 12 13 13 13 14 15 15 15 15 15 15 15 14 14 14 14 14 14 14
-6 -7 -7 -7 -7 -7 -6 -6 -6 -5 -5 -4 -4 -4 -3 -3 -2 -1 1 3 4 4 5 7 7 8 13 13 13 14 14 15 15 15 14 14 14 14 15 14 13 13 14
-6 -6 -8 -8 -7 -7 -6 -6 -6 -5 -5 -4 -4 -4 -3 -3 -2 -2 -0 1 3 4 4 5 7 7 13 13 13 13 13 15 15 15 14 14 14 14 14 14 14 13 13
-6 -6 -7 -7 -7 -6 -6 -5 -5 -5 -5 -5 -4 -4 -3 -3 -3 -2 -1 1 2 3 4 5 6 7 10 13 13 12 12 12 14 14 14 14 14 14 14 14 13 13 13
-6 -6 -6 -6 -7 -6 -5 -5 -4 -4 -4 -4 -4 -4 -4 -3 -2 -2 -1 0 1 2 2 4 5 7 7 13 13 12 12 12 12 12 14 14 14 14 13 13 13 14 13
-6 -6 -6 -7 -7 -6 -5 -5 -4 -3 -3 -3 -3 -3 -3 -3 -3 -2 -1 -0 2 2 3 4 5 6 7 12 12 12 12 11 11 12 12 12 14 14 13 13 13 13 13
-6 -6 -6 -7 -6 -6 -5 -4 -3 -4 -3 -3 -2 -2 -2 -2 -2 -2 -1 -0 1 3 3 4 5 7 7 13 13 12 12 12 11 11 11 11 12 12 12 13 13 14 13
-6 -6 -7 -7 -7 -7 -6 -4 -4 -4 -3 -3 -3 -2 -2 -1 -1 -2 -1 -1 -0 1 3 3 4 7 8 13 13 12 13 13 13 12 11 11 11 11 11 12 13 13 13
-7 -7 -7 -7 -7 -7 -6 -5 -5 -4 -3 -3 -2 -2 -1 -1 -1 -1 -1 -1 -0 1 2 3 3 6 8 11 13 13 13 13 13 13 11 12 11 11 11 12 13 13 13
-7 -7 -8 -8 -8 -8 -6 -6 -4 -4 -3 -3 -4 -2 -1 -1 -0 -0 -0 -0 0 1 1 2 2 4 7 7 13 13 12 12 12 12 11 12 12 11 10 11 11 12 13
-7 -7 -8 -8 -8 -7 -7 -6 -4 -4 -4 -4 -5 -2 1 0 1 0 0 0 1 2 3 3 3 4 5 7 9 13 12 12 12 12 10 12 12 11 10 10 10 11 12
Height
807 811 809 810 810 810 810 810 810 810 812 813 815 818 818 821 821 819 820 821 819 822 825 827 831 832 835 835 836 837 837 838 838 838 838 838 839 839 839 839 840 841 841
814 809 808 808 808 808 810 808 807 809 809 811 811 813 814 816 819 819 819 821 819 819 820 824 829 830 831 835 835 838 838 839 839 840 840 840 839 841 841 841 842 843 844
812 809 809 807 807 807 807 807 807 807 808 808 809 809 812 814 815 816 817 817 820 819 818 819 824 828 829 833 834 836 839 839 840 840 841 842 841 842 843 843 843 845 845
812 811 809 808 810 808 806 806 806 805 806 806 807 807 806 810 811 813 814 813 815 817 819 818 817 823 826 830 833 833 836 839 840 841 842 843 844 843 844 845 845 846 847
813 812 813 812 811 808 807 806 805 806 805 806 805 805 804 803 808 808 810 811 812 812 815 818 818 814 820 824 830 833 832 836 838 840 841 842 844 844 844 845 846 847 848
814 815 814 812 811 808 806 806 806 807 807 805 804 801 800 801 803 804 804 808 808 810 810 815 818 819 818 817 825 830 830 833 835 837 840 842 843 845 846 846 847 848 848
814 812 810 810 809 808 807 808 807 808 807 807 803 799 797 795 798 800 800 802 804 806 808 811 812 816 817 818 816 823 829 829 833 834 837 840 842 845 846 847 848 848 849
813 811 809 808 808 807 807 808 808 808 808 807 807 804 800 792 793 794 795 796 798 801 804 806 809 812 814 816 815 816 822 826 829 832 832 837 841 843 845 846 847 848 849
809 809 808 807 807 807 806 806 807 808 809 807 809 811 805 795 795 787 788 790 793 794 798 801 803 806 808 813 815 812 816 820 825 828 829 832 837 841 843 845 847 848 849
807 807 806 805 805 805 806 806 807 809 810 808 808 807 809 808 806 797 785 784 787 787 791 793 797 799 803 805 810 810 809 814 819 824 827 829 832 837 840 842 845 847 848
805 805 804 803 802 802 803 803 805 807 807 807 807 806 806 806 807 808 799 787 784 783 785 787 789 792 797 800 801 806 807 808 813 818 824 825 828 831 836 838 841 845 847
803 802 802 802 800 800 800 800 801 803 804 802 803 803 804 804 801 803 800 793 788 778 779 780 780 783 788 791 795 800 802 804 807 811 819 823 823 827 831 835 838 841 844
801 800 800 799 797 797 797 797 797 796 796 796 797 797 798 798 799 800 800 795 795 784 774 772 771 775 779 783 785 792 797 800 802 806 811 818 820 822 825 828 833 837 841
798 798 796 795 795 793 792 792 791 790 791 790 790 790 790 790 793 794 794 797 792 789 776 762 767 767 770 775 778 786 789 793 796 800 804 811 815 818 821 825 828 834 838
796 794 794 793 791 789 788 786 786 785 785 784 783 782 781 782 783 786 788 789 789 787 772 758 758 760 764 769 772 778 783 785 791 792 799 803 809 813 817 821 825 828 834
792 791 791 788 785 784 783 782 781 780 779 776 775 774 771 772 774 776 777 779 780 779 775 763 754 754 758 760 764 770 774 780 785 789 791 797 803 808 811 816 821 824 830
788 786 783 781 779 778 776 774 773 772 771 769 767 766 761 762 763 765 768 768 768 768 763 754 757 756 750 752 754 759 765 769 778 782 784 790 795 801 805 810 815 819 823
782 779 777 775 773 771 769 767 765 763 760 757 757 757 751 753 751 753 755 756 756 757 759 753 749 749 742 741 746 749 754 760 764 772 777 781 787 793 799 803 808 814 817
775 772 771 769 766 764 760 757 754 750 747 745 744 743 738 741 738 739 741 742 744 748 748 750 736 741 740 733 738 742 747 754 755 762 771 774 779 786 791 796 801 806 811
769 766 764 761 758 752 750 746 742 737 732 728 727 725 722 724 722 723 726 727 731 735 739 734 729 731 731 724 726 732 741 743 746 755 763 766 771 778 783 788 793 799 803
765 762 757 752 748 744 740 735 731 725 720 714 710 705 702 704 704 706 709 711 714 716 716 718 721 725 728 712 710 714 724 733 737 745 754 756 761 768 774 780 784 790 795
760 755 750 745 740 736 731 728 722 713 706 699 691 686 682 683 683 686 691 694 698 698 701 708 711 710 707 696 700 702 713 722 730 736 746 747 752 756 763 769 774 779 786
754 748 743 738 733 727 723 717 709 700 691 682 673 666 661 659 659 665 670 675 679 683 684 692 691 685 698 682 686 694 701 707 712 726 736 736 738 744 751 758 764 769 776
749 743 738 732 725 718 714 706 698 686 671 655 644 633 630 631 635 643 650 655 659 664 668 671 673 671 680 681 674 679 688 699 712 719 725 724 727 732 741 747 753 760 766
745 741 735 727 720 712 706 697 685 670 651 634 620 602 590 597 606 619 629 635 641 644 653 660 662 667 672 669 671 678 685 693 700 706 715 721 721 726 732 737 743 749 755
743 739 732 725 717 708 699 689 676 659 641 623 604 582 569 574 586 597 608 617 624 627 636 642 652 656 663 667 670 659 666 677 685 698 703 711 715 719 725 729 734 738 744
Wind_Speed
7 5 5 5 5 5 4 5 5 4 4 9 19 20 19 19 14 18 20 18 13 8 13 10 11 11 7 10 9 9 7 6 8 9 11 11 12 12 13 14 14 14 16
8 8 7 6 6 6 7 7 7 8 7 8 10 23 22 24 21 17 21 20 16 14 12 16 14 12 11 10 9 8 8 7 9 9 10 11 12 11 12 13 14 14 16
10 10 10 9 9 9 9 8 9 9 10 11 9 11 25 25 26 21 24 24 20 16 12 21 17 15 14 9 12 11 9 9 9 10 10 10 11 11 11 12 13 14 16
11 11 11 11 10 10 10 11 10 11 11 12 14 13 10 26 27 28 26 28 25 20 16 23 24 20 16 12 13 15 14 11 8 9 12 10 10 10 11 11 13 14 15
10 11 11 10 11 10 10 11 11 12 15 16 17 18 17 12 28 28 29 32 29 25 21 27 26 26 20 15 14 16 18 15 11 10 12 13 13 12 12 12 12 14 15
9 10 10 10 12 12 12 12 12 11 11 13 16 22 22 21 19 31 31 35 33 29 24 28 27 25 23 22 16 15 19 17 15 12 11 17 14 11 12 13 13 14 15
10 11 10 12 13 13 13 13 13 14 13 14 15 9 17 18 26 29 31 37 36 34 30 31 33 31 28 28 25 19 19 19 17 11 11 20 17 15 14 15 14 14 15
10 10 11 12 13 14 13 13 12 12 8 6 6 4 3 5 24 30 32 36 39 37 35 33 36 34 32 32 29 24 24 23 20 14 14 20 18 19 17 15 16 15 15
11 11 11 11 12 13 13 13 13 10 8 9 4 5 2 3 7 17 29 34 35 39 39 37 38 36 34 35 32 28 27 25 23 20 19 22 20 18 19 18 17 17 15
13 13 12 12 13 13 13 13 8 9 9 11 10 9 18 8 3 5 8 26 34 38 43 43 39 37 37 37 37 35 30 27 26 23 22 22 22 21 20 19 21 19 19
13 14 14 14 14 14 15 16 16 15 14 15 13 12 14 14 13 7 5 10 20 29 34 43 44 40 38 37 39 38 34 31 31 27 24 23 24 21 20 21 23 23 23
17 16 16 16 16 17 18 19 19 19 17 16 19 17 17 12 5 10 8 15 14 24 33 38 46 46 43 42 42 41 38 35 34 32 28 27 26 25 24 25 24 23 23
19 20 19 19 20 20 20 21 23 23 23 19 20 21 22 24 21 21 19 16 8 13 22 34 40 42 46 45 44 44 41 34 37 37 32 29 31 29 29 23 28 26 21
21 21 19 20 22 22 23 23 25 27 28 28 27 25 27 26 24 24 23 17 10 16 27 21 33 39 45 48 47 46 45 39 37 39 37 32 28 33 31 29 29 26 24
19 17 20 23 20 22 25 26 26 28 28 28 27 30 30 28 28 29 28 25 20 10 10 22 20 37 38 43 50 49 48 44 42 41 39 35 30 33 34 33 32 30 27
19 21 22 21 23 23 23 24 27 28 30 31 30 30 34 29 29 29 31 30 30 28 13 16 17 22 40 41 50 53 52 46 44 43 41 38 39 34 32 34 33 30 30
20 22 24 24 23 23 24 26 28 29 31 33 34 34 37 35 33 31 34 31 32 30 18 44 38 37 39 44 43 53 50 50 47 46 45 43 42 39 37 35 36 32 30
21 21 20 20 23 24 25 26 28 29 31 34 36 37 41 37 38 35 33 38 34 31 31 30 42 39 36 46 41 49 47 54 52 50 48 45 44 43 40 39 40 35 34
21 22 20 23 24 24 24 28 33 35 37 38 39 39 43 40 43 39 37 38 38 39 35 34 40 38 37 39 40 43 43 43 47 49 51 47 46 44 43 42 40 39 39
22 23 23 25 25 25 27 29 32 35 38 43 44 44 47 45 46 43 41 41 42 38 38 32 33 39 36 41 42 38 34 38 37 38 52 50 48 46 45 42 42 42 41
22 24 25 26 24 25 27 28 31 35 38 42 45 48 52 50 53 51 42 44 40 40 36 30 31 36 41 31 40 42 40 35 36 39 42 47 47 48 47 46 42 43 44
24 25 26 25 24 26 28 32 35 38 40 44 45 45 50 53 57 58 57 53 48 38 36 32 34 32 41 41 41 39 36 30 12 37 36 35 43 45 47 52 50 46 46
25 27 27 25 28 30 29 32 36 40 43 47 51 50 49 50 57 55 57 58 56 57 53 43 40 40 46 40 41 39 39 39 33 31 38 34 42 41 42 49 50 51 50
24 26 27 29 29 32 31 35 39 45 50 50 52 55 55 55 54 54 53 50 55 55 60 51 44 46 53 44 46 49 46 40 31 32 44 25 36 39 39 44 51 49 53
24 25 28 29 29 34 35 38 42 44 43 45 45 52 58 59 59 58 52 48 48 51 56 58 58 57 55 51 44 41 34 31 19 24 36 27 27 29 34 37 43 48 52
23 24 29 30 29 32 36 38 43 41 39 39 45 38 37 50 55 58 55 48 42 45 48 45 53 58 57 60 51 53 47 37 30 17 30 31 25 25 9 32 36 43 51
Wind_Direction
27 11 22 13 2 351 326 322 321 311 246 241 232 238 235 236 228 210 202 193 191 173 178 180 185 177 171 170 160 149 139 144 151 145 140 133 125 120 116 116 120 119 119
6 10 6 359 354 345 336 328 320 314 292 292 253 238 233 232 230 225 212 202 200 185 176 191 194 193 180 184 177 178 160 150 161 158 151 146 138 133 127 125 128 128 127
11 9 2 356 345 339 335 327 317 304 297 287 289 247 243 238 235 226 216 206 206 202 192 190 189 196 189 212 190 178 180 161 160 171 168 160 151 148 142 136 136 140 137
16 11 6 1 347 341 339 336 329 321 308 301 290 278 251 246 240 231 222 209 208 208 206 192 185 188 189 200 206 187 184 180 177 184 184 179 172 164 155 151 147 144 145
21 17 13 8 1 357 350 346 340 335 319 306 296 283 275 255 245 235 225 214 211 209 206 201 198 187 189 197 205 208 188 189 191 191 191 183 180 176 170 162 159 153 151
19 8 4 4 354 353 353 352 347 337 331 326 308 289 280 273 253 236 225 220 214 214 212 206 206 205 200 193 203 211 194 193 198 194 199 189 182 190 188 176 172 163 160
341 347 342 341 346 348 347 346 339 335 328 325 329 308 286 272 246 234 229 219 218 216 215 212 208 212 211 208 201 212 211 197 197 197 214 195 189 190 197 191 179 172 169
340 340 333 336 337 336 337 339 344 340 332 17 354 317 302 274 238 230 222 221 223 221 217 216 213 212 213 214 208 207 212 204 199 212 201 189 194 197 206 195 188 180 175
338 333 330 327 327 328 326 328 330 326 316 313 313 273 287 287 337 213 219 221 223 222 220 215 214 217 215 218 216 206 205 207 199 198 191 192 200 209 203 203 197 192 184
331 329 327 323 320 320 316 316 315 299 295 283 309 258 257 272 326 324 260 220 222 222 222 215 216 218 221 220 217 211 205 206 203 196 193 196 199 204 202 206 203 199 195
330 329 326 320 316 314 309 305 301 293 283 269 261 271 276 267 251 242 297 303 226 223 222 217 215 216 219 215 208 214 210 208 203 195 198 198 193 197 201 198 198 199 198
326 327 325 316 311 305 302 301 296 289 279 265 262 253 249 245 223 218 236 274 269 239 219 216 214 215 217 215 215 221 206 209 203 197 200 202 200 201 201 204 195 189 190
320 319 314 307 303 299 296 294 290 288 284 269 257 254 251 247 248 255 263 264 279 308 229 219 213 212 214 217 215 216 206 209 205 203 197 207 205 202 202 206 199 195 193
311 310 306 302 298 295 292 292 288 284 279 273 266 257 253 251 246 242 242 247 269 270 271 225 216 212 213 217 215 212 206 209 206 204 202 208 220 206 203 202 191 189 200
308 302 295 290 284 278 282 283 275 269 267 265 262 263 258 253 248 243 242 238 237 249 282 228 213 214 211 214 216 213 210 209 211 206 208 212 219 210 206 206 202 201 212
308 303 295 284 284 279 273 269 266 266 263 263 259 258 259 257 250 246 240 236 232 234 247 272 244 221 210 210 217 216 213 214 212 211 213 215 218 213 206 209 205 210 216
310 306 303 294 286 278 272 264 260 258 258 261 258 255 256 257 253 245 242 239 232 224 234 256 264 278 213 211 211 214 211 212 214 213 212 213 216 214 213 213 211 208 213
313 309 295 287 283 275 271 267 264 261 256 254 254 253 252 252 251 246 240 237 240 232 231 245 252 262 228 210 208 207 206 212 211 212 214 210 216 219 218 221 221 221 217
318 314 304 294 280 276 277 276 271 265 260 256 253 249 250 245 247 244 239 238 234 234 234 234 252 251 261 209 203 205 205 208 210 216 213 213 212 218 217 218 221 222 224
324 317 309 301 284 290 285 278 274 269 264 258 253 249 249 245 243 241 238 236 235 237 240 235 244 253 262 210 199 195 200 203 204 209 212 211 213 218 219 218 217 224 220
326 318 309 303 295 290 285 283 279 273 269 266 258 250 247 245 244 240 235 234 234 228 225 226 234 242 249 202 194 195 199 198 200 204 209 209 211 217 220 225 225 220 226
327 322 315 311 300 294 294 291 291 285 278 272 266 259 249 242 242 240 237 235 231 229 223 223 229 230 243 204 196 192 191 188 190 206 205 206 207 211 218 220 222 224 224
329 325 324 313 302 304 303 301 297 292 288 281 273 264 254 242 235 234 235 232 232 232 235 227 230 231 237 212 192 189 192 194 197 198 199 204 203 208 212 220 224 225 223
333 334 327 320 313 311 314 309 308 300 292 285 276 260 248 237 228 225 227 227 228 229 231 230 234 237 232 243 196 193 192 197 199 204 199 213 200 207 208 217 224 225 222
340 339 332 329 323 313 318 320 317 311 307 300 290 275 243 229 223 219 218 221 225 225 229 228 230 236 234 246 205 190 189 185 191 201 202 213 201 198 207 213 220 223 224
342 336 335 336 328 316 325 325 325 323 316 313 312 314 233 219 219 213 212 214 220 222 216 220 227 232 237 244 240 193 185 188 188 196 208 202 190 187 190 214 217 221 224